Charter Quote
Worldwide +1-877-727-2538 Call
Select Language Lang
SAFETY RELIABILITY EXPERIENCE

Private Jet Charter Services - Springs Airport (FASI)

Paramount Business Jets offers private jet charter flights and luxury airliner charters to and from Springs Airport.

AIRPORT INFORMATION
ICAOFASI
LOCATIONSprings, South Africa
FACILITY TYPEAIRPORT
Runway Length (ft) Width (ft) Surface Type Elevation (ft)
21/03 5249 59 ASP 5336.49180
32/14 1818 70 GRE 5336.49180

At Paramount Business Jets you can hire chartered private jets to and from Springs Airport with as little as 4 hours of notice. All flights booked via Paramount Business Jets are operated by certified direct air carriers that meet and exceed the FAA part 135 and 121 protocol or a foreign equivalent safety authority. Furthermore, Paramount Business Jets subscribes to ARGUS for their third party safety checks of operators, aircraft, and crews prior each and every flight to and from Springs Airport and worldwide.

  • Quote a trip using Springs Airport or call us 24/7 - 365 days a year at +1-877-727-2538.
Questions? Call +1-877-727-2538

METAR Weather Data at Springs Airport, FASI

STATIONFASI
OBSERVEDSat Dec 7, 14:00 UTC
NOWSat Dec 7, 14:53 UTC
AGE53 min ago
WINDSSE at 6 mph
METARFASI 071400Z AUTO 16005KT //// // ////// 18/14 Q1020

Call us on +1-877-727-2538 (24 Hours) to Hire a Private Jet or Get a Quick Quote.

Find Airports Near any Location

Processing
...